Time,TemperatureF,DewpointF,PressureIn,WindDirection,WindDirectionDegrees,WindSpeedMPH,WindSpeedGustMPH,Humidity,HourlyPrecipIn,Conditions,Clouds,dailyrainin,SolarRadiationWatts/m^2,SoftwareType,DateUTC
2013-03-09 00:00:00,42.9,30.0,30.23,NNE,16,7.2,7.2,60,0.00,,SCT,0.00,0.0,WeatherDisplay:10.37,2013-03-09 05:00:00,
2013-03-09 00:05:00,42.9,29.5,30.23,NNW,339,5.5,10.4,59,0.00,,SCT,0.00,0.0,WeatherDisplay:10.37,2013-03-09 05:05:00,
2013-03-09 00:10:00,42.8,29.5,30.23,NNE,22,10.7,15.0,59,0.00,,SCT,0.00,0.0,WeatherDisplay:10.37,2013-03-09 05:10:00,
2013-03-09 00:15:00,42.7,29.4,30.23,NW,322,4.8,12.0,59,0.00,,SCT,0.00,0.0,WeatherDisplay:10.37,2013-03-09 05:15:00,
2013-03-09 00:20:00,42.5,29.6,30.23,NW,309,2.7,9.2,60,0.00,,SCT,0.00,0.0,WeatherDisplay:10.37,2013-03-09 05:20:00,
2013-03-09 00:25:00,42.5,29.6,30.23,North,8,4.2,5.8,60,0.00,,SCT,0.00,0.0,WeatherDisplay:10.37,2013-03-09 05:25:00,
2013-03-09 00:30:00,42.3,29.4,30.23,North,349,7.5,13.0,60,0.00,,SCT,0.00,0.0,WeatherDisplay:10.37,2013-03-09 05:30:00,
2013-03-09 00:35:00,42.2,29.3,30.23,NW,321,5.3,7.0,60,0.00,,SCT,0.00,0.0,WeatherDisplay:10.37,2013-03-09 05:35:00,
2013-03-09 00:40:00,42.1,29.2,30.24,North,353,7.8,11.0,60,0.00,,SCT,0.00,0.0,WeatherDisplay:10.37,2013-03-09 05:40:00,
2013-03-09 00:45:00,42.0,29.1,30.23,NNW,346,6.4,11.5,60,0.00,,SCT,0.00,0.0,WeatherDisplay:10.37,2013-03-09 05:45:00,
2013-03-09 00:50:00,41.8,29.3,30.23,NNW,339,5.2,10.4,61,0.00,,SCT,0.00,0.0,WeatherDisplay:10.37,2013-03-09 05:50:00,
2013-03-09 00:55:00,41.6,29.1,30.23,NE,43,6.0,11.5,61,0.00,,SCT,0.00,0.0,WeatherDisplay:10.37,2013-03-09 05:55:00,
2013-03-09 01:00:00,41.4,28.9,30.23,NNW,345,5.6,10.4,61,0.00,,SCT,0.00,0.0,WeatherDisplay:10.37,2013-03-09 06:00:00,
2013-03-09 01:05:00,41.3,28.9,30.23,WNW,290,5.5,7.0,61,0.00,,SCT,0.00,0.0,WeatherDisplay:10.37,2013-03-09 06:05:00,
2013-03-09 01:10:00,41.3,28.9,30.23,North,8,5.4,11.5,61,0.00,,SCT,0.00,0.0,WeatherDisplay:10.37,2013-03-09 06:10:00,
2013-03-09 01:15:00,41.2,29.2,30.23,NW,319,5.4,11.0,62,0.00,,SCT,0.00,0.0,WeatherDisplay:10.37,2013-03-09 06:15:00,
2013-03-09 01:20:00,41.1,28.7,30.24,NW,320,7.0,11.5,61,0.00,,SCT,0.00,0.0,WeatherDisplay:10.37,2013-03-09 06:20:00,
2013-03-09 01:25:00,41.0,29.0,30.24,NNW,335,5.4,10.4,62,0.00,,SCT,0.00,0.0,WeatherDisplay:10.37,2013-03-09 06:25:00,
2013-03-09 01:30:00,40.8,28.8,30.24,NNW,343,6.2,11.5,62,0.00,,SCT,0.00,0.0,WeatherDisplay:10.37,2013-03-09 06:30:00,
2013-03-09 01:35:00,40.8,28.8,30.25,NNW,346,6.2,9.2,62,0.00,,SCT,0.00,0.0,WeatherDisplay:10.37,2013-03-09 06:35:00,
2013-03-09 01:40:00,40.8,29.2,30.25,NNW,336,3.8,5.0,63,0.00,,SCT,0.00,0.0,WeatherDisplay:10.37,2013-03-09 06:40:00,
2013-03-09 01:45:00,40.8,29.2,30.25,North,358,5.6,9.2,63,0.00,,SCT,0.00,0.0,WeatherDisplay:10.37,2013-03-09 06:45:00,
2013-03-09 01:50:00,40.7,29.1,30.25,NNW,342,5.0,8.1,63,0.00,,SCT,0.00,0.0,WeatherDisplay:10.37,2013-03-09 06:50:00,
2013-03-09 01:55:00,40.6,29.0,30.25,NNW,332,3.2,5.8,63,0.00,,SCT,0.00,0.0,WeatherDisplay:10.37,2013-03-09 06:55:00,
2013-03-09 02:00:00,40.5,28.5,30.25,North,3,7.1,11.5,62,0.00,,SCT,0.00,0.0,WeatherDisplay:10.37,2013-03-09 07:00:00,
2013-03-09 02:05:00,40.4,28.4,30.25,NW,323,5.3,6.9,62,0.00,,SCT,0.00,0.0,WeatherDisplay:10.37,2013-03-09 07:05:00,
2013-03-09 02:10:00,40.4,28.4,30.25,NNW,348,3.6,5.8,62,0.00,,SCT,0.00,0.0,WeatherDisplay:10.37,2013-03-09 07:10:00,
2013-03-09 02:15:00,40.3,28.3,30.25,North,358,6.9,9.2,62,0.00,,SCT,0.00,0.0,WeatherDisplay:10.37,2013-03-09 07:15:00,
2013-03-09 02:20:00,40.2,28.2,30.25,North,353,8.3,11.5,62,0.00,,SCT,0.00,0.0,WeatherDisplay:10.37,2013-03-09 07:20:00,
2013-03-09 02:25:00,40.1,28.5,30.25,NW,321,4.7,11.5,63,0.00,,SCT,0.00,0.0,WeatherDisplay:10.37,2013-03-09 07:25:00,
2013-03-09 02:30:00,40.0,28.4,30.25,North,3,7.5,16.1,63,0.00,,SCT,0.00,0.0,WeatherDisplay:10.37,2013-03-09 07:30:00,
2013-03-09 02:35:00,40.0,28.8,30.24,NW,322,7.1,13.8,64,0.00,,SCT,0.00,0.0,WeatherDisplay:10.37,2013-03-09 07:35:00,
2013-03-09 02:40:00,40.0,29.2,30.24,NNE,13,7.2,12.7,65,0.00,,SCT,0.00,0.0,WeatherDisplay:10.37,2013-03-09 07:40:00,
2013-03-09 02:45:00,39.9,29.1,30.24,NNW,341,4.8,12.0,65,0.00,,SCT,0.00,0.0,WeatherDisplay:10.37,2013-03-09 07:45:00,
2013-03-09 02:50:00,39.8,29.0,30.24,North,3,4.5,6.9,65,0.00,,SCT,0.00,0.0,WeatherDisplay:10.37,2013-03-09 07:50:00,
2013-03-09 02:55:00,39.7,29.3,30.24,North,8,4.9,6.9,66,0.00,,SCT,0.00,0.0,WeatherDisplay:10.37,2013-03-09 07:55:00,
2013-03-09 03:00:00,39.7,28.9,30.24,NNW,343,5.6,11.5,65,0.00,,SCT,0.00,0.0,WeatherDisplay:10.37,2013-03-09 08:00:00,
2013-03-09 03:05:00,39.6,28.8,30.24,North,350,6.0,10.0,65,0.00,,SCT,0.00,0.0,WeatherDisplay:10.37,2013-03-09 08:05:00,
2013-03-09 03:10:00,39.5,28.3,30.23,NNW,337,5.5,6.9,64,0.00,,SCT,0.00,0.0,WeatherDisplay:10.37,2013-03-09 08:10:00,
2013-03-09 03:15:00,39.5,28.3,30.23,North,3,4.9,6.0,64,0.00,,SCT,0.00,0.0,WeatherDisplay:10.37,2013-03-09 08:15:00,
2013-03-09 03:20:00,39.5,28.7,30.23,NNW,348,3.5,6.9,65,0.00,,SCT,0.00,0.0,WeatherDisplay:10.37,2013-03-09 08:20:00,
2013-03-09 03:25:00,39.4,28.6,30.24,NNW,334,5.7,10.4,65,0.00,,SCT,0.00,0.0,WeatherDisplay:10.37,2013-03-09 08:25:00,
2013-03-09 03:30:00,39.3,28.1,30.24,NNW,341,7.5,12.7,64,0.00,,SCT,0.00,0.0,WeatherDisplay:10.37,2013-03-09 08:30:00,
2013-03-09 03:35:00,39.3,28.1,30.24,North,358,4.8,11.5,64,0.00,,SCT,0.00,0.0,WeatherDisplay:10.37,2013-03-09 08:35:00,
2013-03-09 03:40:00,39.2,27.7,30.24,NW,322,5.7,10.4,63,0.00,,SCT,0.00,0.0,WeatherDisplay:10.37,2013-03-09 08:40:00,
2013-03-09 03:45:00,39.1,27.6,30.24,NNW,330,7.5,8.1,63,0.00,,SCT,0.00,0.0,WeatherDisplay:10.37,2013-03-09 08:45:00,
2013-03-09 03:50:00,39.1,27.6,30.24,NNW,333,5.4,8.1,63,0.00,,SCT,0.00,0.0,WeatherDisplay:10.37,2013-03-09 08:50:00,
2013-03-09 03:55:00,39.1,27.6,30.24,North,349,3.2,11.5,63,0.00,,SCT,0.00,0.0,WeatherDisplay:10.37,2013-03-09 08:55:00,
2013-03-09 04:00:00,39.1,27.9,30.24,WNW,303,7.3,10.4,64,0.00,,SCT,0.00,0.0,WeatherDisplay:10.37,2013-03-09 09:00:00,
2013-03-09 04:05:00,38.9,27.8,30.25,NNE,14,6.6,11.5,64,0.00,,SCT,0.00,0.0,WeatherDisplay:10.37,2013-03-09 09:05:00,
2013-03-09 04:10:00,38.9,28.1,30.24,North,350,5.5,10.4,65,0.00,,SCT,0.00,0.0,WeatherDisplay:10.37,2013-03-09 09:10:00,
2013-03-09 04:15:00,38.8,28.4,30.24,West,267,3.7,6.9,66,0.00,,SCT,0.00,0.0,WeatherDisplay:10.37,2013-03-09 09:15:00,
2013-03-09 04:20:00,38.7,27.9,30.25,NNW,343,4.9,10.4,65,0.00,,SCT,0.00,0.0,WeatherDisplay:10.37,2013-03-09 09:20:00,
2013-03-09 04:25:00,38.7,27.9,30.25,NNW,343,5.3,9.2,65,0.00,,SCT,0.00,0.0,WeatherDisplay:10.37,2013-03-09 09:25:00,
2013-03-09 04:30:00,38.7,27.9,30.25,NW,326,5.4,9.2,65,0.00,,SCT,0.00,0.0,WeatherDisplay:10.37,2013-03-09 09:30:00,
2013-03-09 04:35:00,38.6,27.8,30.25,NNW,343,5.9,11.5,65,0.00,,SCT,0.00,0.0,WeatherDisplay:10.37,2013-03-09 09:35:00,
2013-03-09 04:40:00,38.6,27.8,30.25,NW,311,7.1,11.5,65,0.00,,SCT,0.00,0.0,WeatherDisplay:10.37,2013-03-09 09:40:00,
2013-03-09 04:45:00,38.6,27.8,30.25,North,358,6.7,10.0,65,0.00,,SCT,0.00,0.0,WeatherDisplay:10.37,2013-03-09 09:45:00,
2013-03-09 04:50:00,38.7,27.9,30.25,NW,313,6.2,10.0,65,0.00,,SCT,0.00,0.0,WeatherDisplay:10.37,2013-03-09 09:50:00,
2013-03-09 04:55:00,38.6,27.8,30.25,NNE,16,5.9,11.5,65,0.00,,SCT,0.00,0.0,WeatherDisplay:10.37,2013-03-09 09:55:00,
2013-03-09 05:00:00,38.6,27.8,30.25,North,349,7.1,10.4,65,0.00,,SCT,0.00,0.0,WeatherDisplay:10.37,2013-03-09 10:00:00,
2013-03-09 05:05:00,38.6,27.5,30.25,North,358,7.6,10.4,64,0.00,,SCT,0.00,0.0,WeatherDisplay:10.37,2013-03-09 10:05:00,
2013-03-09 05:11:00,38.6,27.8,30.25,NW,308,4.8,9.2,65,0.00,,SCT,0.00,0.0,WeatherDisplay:10.37,2013-03-09 10:11:00,
2013-03-09 05:16:00,38.4,27.7,30.25,North,352,3.9,5.8,65,0.00,,SCT,0.00,0.0,WeatherDisplay:10.37,2013-03-09 10:16:00,
2013-03-09 05:21:00,38.3,27.6,30.26,NW,317,6.6,11.5,65,0.00,,SCT,0.00,0.0,WeatherDisplay:10.37,2013-03-09 10:21:00,
2013-03-09 05:26:00,38.3,27.6,30.25,NW,314,5.5,9.2,65,0.00,,SCT,0.00,0.0,WeatherDisplay:10.37,2013-03-09 10:26:00,
2013-03-09 05:31:00,38.3,27.6,30.26,NNW,341,4.1,6.9,65,0.00,,SCT,0.00,0.0,WeatherDisplay:10.37,2013-03-09 10:31:00,
2013-03-09 05:36:00,38.3,27.6,30.26,NNW,335,6.7,10.4,65,0.00,,SCT,0.00,0.0,WeatherDisplay:10.37,2013-03-09 10:36:00,
2013-03-09 05:41:00,38.2,27.5,30.27,NNW,330,5.0,9.2,65,0.00,,SCT,0.00,0.0,WeatherDisplay:10.37,2013-03-09 10:41:00,
2013-03-09 05:46:00,38.1,27.7,30.27,North,351,6.1,9.2,66,0.00,,SCT,0.00,0.0,WeatherDisplay:10.37,2013-03-09 10:46:00,
2013-03-09 05:51:00,38.0,27.6,30.27,NNW,328,7.7,11.5,66,0.00,,SCT,0.00,0.0,WeatherDisplay:10.37,2013-03-09 10:51:00,
2013-03-09 05:56:00,38.0,27.6,30.27,NNW,329,6.2,9.0,66,0.00,,SCT,0.00,0.0,WeatherDisplay:10.37,2013-03-09 10:56:00,
2013-03-09 06:01:00,38.0,27.6,30.27,North,358,5.8,11.5,66,0.00,,SCT,0.00,0.0,WeatherDisplay:10.37,2013-03-09 11:01:00,
2013-03-09 06:06:00,37.9,27.5,30.27,NW,310,4.3,9.2,66,0.00,,SCT,0.00,0.0,WeatherDisplay:10.37,2013-03-09 11:06:00,
2013-03-09 06:11:00,37.9,27.5,30.27,NNW,340,3.5,5.8,66,0.00,,SCT,0.00,0.0,WeatherDisplay:10.37,2013-03-09 11:11:00,
2013-03-09 06:16:00,37.9,27.5,30.27,North,349,6.0,9.2,66,0.00,,SCT,0.00,0.0,WeatherDisplay:10.37,2013-03-09 11:16:00,
2013-03-09 06:21:00,37.9,27.9,30.28,NW,308,4.3,6.9,67,0.00,,SCT,0.00,0.0,WeatherDisplay:10.37,2013-03-09 11:21:00,
2013-03-09 06:26:00,37.8,27.8,30.28,WNW,295,3.6,4.6,67,0.00,,SCT,0.00,5.0,WeatherDisplay:10.37,2013-03-09 11:26:00,
2013-03-09 06:31:00,37.7,27.7,30.28,NW,325,6.4,11.5,67,0.00,,SCT,0.00,7.0,WeatherDisplay:10.37,2013-03-09 11:31:00,
2013-03-09 06:36:00,37.7,27.7,30.29,North,349,6.1,11.5,67,0.00,,SCT,0.00,11.0,WeatherDisplay:10.37,2013-03-09 11:36:00,
2013-03-09 06:41:00,37.7,28.1,30.28,NW,326,4.9,9.2,68,0.00,,SCT,0.00,14.0,WeatherDisplay:10.37,2013-03-09 11:41:00,
2013-03-09 06:46:00,37.6,28.0,30.29,NNW,329,3.5,5.8,68,0.00,,SCT,0.00,18.0,WeatherDisplay:10.37,2013-03-09 11:46:00,
2013-03-09 06:51:00,37.7,28.1,30.29,NNE,22,3.4,4.6,68,0.00,,SCT,0.00,23.0,WeatherDisplay:10.37,2013-03-09 11:51:00,
2013-03-09 06:56:00,37.8,28.2,30.29,North,352,4.4,6.9,68,0.00,,SCT,0.00,32.0,WeatherDisplay:10.37,2013-03-09 11:56:00,
2013-03-09 07:01:00,38.1,28.1,30.29,NW,322,4.3,6.9,67,0.00,CLR,SCT,0.00,44.0,WeatherDisplay:10.37,2013-03-09 12:01:00,
2013-03-09 07:06:00,38.3,27.9,30.29,NW,326,3.1,5.8,66,0.00,CLR,SCT,0.00,56.0,WeatherDisplay:10.37,2013-03-09 12:06:00,
2013-03-09 07:11:00,38.5,28.1,30.29,NW,312,3.9,6.9,66,0.00,CLR,SCT,0.00,72.0,WeatherDisplay:10.37,2013-03-09 12:11:00,
2013-03-09 07:16:00,38.7,28.3,30.29,NNW,342,5.3,9.2,66,0.00,CLR,SCT,0.00,90.0,WeatherDisplay:10.37,2013-03-09 12:16:00,
2013-03-09 07:21:00,38.9,28.1,30.29,NNW,332,4.3,10.4,65,0.00,CLR,SCT,0.00,97.0,WeatherDisplay:10.37,2013-03-09 12:21:00,
2013-03-09 07:26:00,39.0,28.2,30.30,NW,315,6.8,11.5,65,0.00,CLR,SCT,0.00,95.0,WeatherDisplay:10.37,2013-03-09 12:26:00,
2013-03-09 07:31:00,39.2,28.0,30.30,NNW,332,5.1,10.0,64,0.00,BKN,SCT,0.00,98.0,WeatherDisplay:10.37,2013-03-09 12:31:00,
2013-03-09 07:36:00,39.3,28.1,30.30,North,351,7.5,11.5,64,0.00,FEW,SCT,0.00,123.0,WeatherDisplay:10.37,2013-03-09 12:36:00,
2013-03-09 07:41:00,39.5,27.9,30.30,NW,324,6.1,10.4,63,0.00,CLR,SCT,0.00,169.0,WeatherDisplay:10.37,2013-03-09 12:41:00,
2013-03-09 07:46:00,39.6,27.6,30.30,NNW,345,5.4,10.4,62,0.00,CLR,SCT,0.00,209.0,WeatherDisplay:10.37,2013-03-09 12:46:00,
2013-03-09 07:51:00,39.7,28.1,30.30,NNE,23,4.1,4.6,63,0.00,CLR,SCT,0.00,227.0,WeatherDisplay:10.37,2013-03-09 12:51:00,
2013-03-09 07:56:00,39.9,27.9,30.30,NW,309,7.6,11.5,62,0.00,CLR,SCT,0.00,243.0,WeatherDisplay:10.37,2013-03-09 12:56:00,
2013-03-09 08:01:00,40.1,28.5,30.30,NNW,328,4.4,5.8,63,0.00,CLR,SCT,0.00,257.0,WeatherDisplay:10.37,2013-03-09 13:01:00,
2013-03-09 08:06:00,40.3,27.9,30.30,North,8,5.3,11.5,61,0.00,CLR,SCT,0.00,276.0,WeatherDisplay:10.37,2013-03-09 13:06:00,
2013-03-09 08:11:00,40.5,28.1,30.30,NNW,347,4.0,8.1,61,0.00,CLR,SCT,0.00,292.0,WeatherDisplay:10.37,2013-03-09 13:11:00,
2013-03-09 08:16:00,40.7,27.9,30.29,NNW,332,5.7,11.5,60,0.00,CLR,SCT,0.00,308.0,WeatherDisplay:10.37,2013-03-09 13:16:00,
2013-03-09 08:21:00,40.8,28.0,30.30,North,8,4.6,10.4,60,0.00,CLR,SCT,0.00,325.0,WeatherDisplay:10.37,2013-03-09 13:21:00,
2013-03-09 08:26:00,40.9,28.1,30.30,NNW,343,5.0,9.2,60,0.00,CLR,SCT,0.00,345.0,WeatherDisplay:10.37,2013-03-09 13:26:00,
2013-03-09 08:31:00,41.0,27.8,30.30,NNW,332,5.2,8.0,59,0.00,CLR,SCT,0.00,360.0,WeatherDisplay:10.37,2013-03-09 13:31:00,
2013-03-09 08:36:00,41.1,27.9,30.30,NNW,337,6.6,10.4,59,0.00,CLR,SCT,0.00,355.0,WeatherDisplay:10.37,2013-03-09 13:36:00,
2013-03-09 08:41:00,41.3,28.0,30.30,NNW,335,5.8,10.4,59,0.00,CLR,SCT,0.00,294.0,WeatherDisplay:10.37,2013-03-09 13:41:00,
2013-03-09 08:46:00,41.5,27.4,30.30,NNW,332,7.9,11.5,57,0.00,CLR,SCT,0.00,244.0,WeatherDisplay:10.37,2013-03-09 13:46:00,
2013-03-09 08:51:00,41.8,28.5,30.30,North,350,7.3,12.0,59,0.00,CLR,SCT,0.00,403.0,WeatherDisplay:10.37,2013-03-09 13:51:00,
2013-03-09 08:56:00,42.2,28.9,30.30,North,358,3.4,4.0,59,0.00,CLR,SCT,0.00,438.0,WeatherDisplay:10.37,2013-03-09 13:56:00,
2013-03-09 09:01:00,42.3,29.8,30.31,NNW,344,5.3,8.1,61,0.00,CLR,SCT,0.00,454.0,WeatherDisplay:10.37,2013-03-09 14:01:00,
2013-03-09 09:06:00,42.3,29.0,30.31,NNW,339,7.2,12.0,59,0.00,CLR,SCT,0.00,466.0,WeatherDisplay:10.37,2013-03-09 14:06:00,
2013-03-09 09:11:00,42.5,29.2,30.31,NNW,336,5.8,10.4,59,0.00,CLR,SCT,0.00,482.0,WeatherDisplay:10.37,2013-03-09 14:11:00,
2013-03-09 09:16:00,42.4,29.1,30.32,North,353,6.0,11.5,59,0.00,CLR,SCT,0.00,497.0,WeatherDisplay:10.37,2013-03-09 14:16:00,
2013-03-09 09:21:00,42.5,28.8,30.32,North,358,8.5,15.0,58,0.00,CLR,SCT,0.00,510.0,WeatherDisplay:10.37,2013-03-09 14:21:00,
2013-03-09 09:26:00,42.8,29.0,30.32,NNW,330,7.4,15.0,58,0.00,CLR,SCT,0.00,524.0,WeatherDisplay:10.37,2013-03-09 14:26:00,
2013-03-09 09:31:00,42.7,28.9,30.32,North,358,8.1,15.0,58,0.00,CLR,SCT,0.00,538.0,WeatherDisplay:10.37,2013-03-09 14:31:00,
2013-03-09 09:36:00,42.7,28.5,30.32,NNW,334,6.7,11.5,57,0.00,CLR,SCT,0.00,550.0,WeatherDisplay:10.37,2013-03-09 14:36:00,
2013-03-09 09:41:00,43.3,29.9,30.33,NW,315,7.6,12.0,59,0.00,CLR,SCT,0.00,563.0,WeatherDisplay:10.37,2013-03-09 14:41:00,
2013-03-09 09:46:00,43.7,30.7,30.33,NNW,336,8.1,15.0,60,0.00,CLR,SCT,0.00,573.0,WeatherDisplay:10.37,2013-03-09 14:46:00,
2013-03-09 09:51:00,43.8,28.7,30.32,NNE,12,9.8,11.5,55,0.00,CLR,SCT,0.00,587.0,WeatherDisplay:10.37,2013-03-09 14:51:00,
2013-03-09 09:56:00,44.3,30.4,30.32,NNW,342,5.5,10.0,58,0.00,CLR,SCT,0.00,598.0,WeatherDisplay:10.37,2013-03-09 14:56:00,
2013-03-09 10:01:00,44.6,30.3,30.33,NNW,332,7.0,9.2,57,0.00,CLR,SCT,0.00,610.0,WeatherDisplay:10.37,2013-03-09 15:01:00,
2013-03-09 10:06:00,44.3,28.7,30.32,NW,324,8.4,11.0,54,0.00,CLR,SCT,0.00,621.0,WeatherDisplay:10.37,2013-03-09 15:06:00,
2013-03-09 10:11:00,44.7,30.0,30.33,NNW,341,5.4,9.2,56,0.00,CLR,SCT,0.00,629.0,WeatherDisplay:10.37,2013-03-09 15:11:00,
2013-03-09 10:16:00,44.9,29.7,30.33,North,354,8.7,11.5,55,0.00,CLR,SCT,0.00,642.0,WeatherDisplay:10.37,2013-03-09 15:16:00,
2013-03-09 10:21:00,45.1,29.4,30.32,NW,326,9.5,12.7,54,0.00,CLR,SCT,0.00,652.0,WeatherDisplay:10.37,2013-03-09 15:21:00,
2013-03-09 10:26:00,45.0,28.9,30.32,NW,320,11.1,14.0,53,0.00,CLR,SCT,0.00,661.0,WeatherDisplay:10.37,2013-03-09 15:26:00,
2013-03-09 10:31:00,45.3,29.6,30.32,NNW,341,7.7,11.5,54,0.00,CLR,SCT,0.00,668.0,WeatherDisplay:10.37,2013-03-09 15:31:00,
2013-03-09 10:36:00,46.0,30.7,30.32,North,350,7.7,9.0,55,0.00,CLR,SCT,0.00,679.0,WeatherDisplay:10.37,2013-03-09 15:36:00,
2013-03-09 10:41:00,46.2,29.1,30.32,NNW,334,9.8,15.0,51,0.00,CLR,SCT,0.00,687.0,WeatherDisplay:10.37,2013-03-09 15:41:00,
2013-03-09 10:46:00,45.9,29.2,30.32,NNE,19,7.9,11.5,52,0.00,CLR,SCT,0.00,696.0,WeatherDisplay:10.37,2013-03-09 15:46:00,
2013-03-09 10:51:00,46.1,28.0,30.32,NW,326,8.9,12.7,49,0.00,CLR,SCT,0.00,701.0,WeatherDisplay:10.37,2013-03-09 15:51:00,
2013-03-09 10:56:00,46.1,28.5,30.32,North,358,6.6,11.5,50,0.00,CLR,SCT,0.00,710.0,WeatherDisplay:10.37,2013-03-09 15:56:00,
2013-03-09 11:01:00,46.4,29.2,30.32,NNW,347,7.8,11.5,51,0.00,CLR,SCT,0.00,717.0,WeatherDisplay:10.37,2013-03-09 16:01:00,
2013-03-09 11:06:00,47.3,30.1,30.32,NNW,339,6.6,8.1,51,0.00,CLR,SCT,0.00,722.0,WeatherDisplay:10.37,2013-03-09 16:06:00,
2013-03-09 11:11:00,47.6,28.9,30.32,NNW,342,4.0,4.6,48,0.00,CLR,SCT,0.00,729.0,WeatherDisplay:10.37,2013-03-09 16:11:00,
2013-03-09 11:16:00,48.1,30.3,30.32,NE,41,7.7,11.5,50,0.00,CLR,SCT,0.00,733.0,WeatherDisplay:10.37,2013-03-09 16:16:00,
2013-03-09 11:21:00,48.2,28.4,30.32,North,3,6.4,11.5,46,0.00,CLR,SCT,0.00,744.0,WeatherDisplay:10.37,2013-03-09 16:21:00,
2013-03-09 11:26:00,48.6,29.3,30.32,NNW,336,7.5,11.5,47,0.00,CLR,SCT,0.00,747.0,WeatherDisplay:10.37,2013-03-09 16:26:00,
2013-03-09 11:31:00,48.7,28.8,30.32,NNW,345,4.8,11.5,46,0.00,CLR,SCT,0.00,749.0,WeatherDisplay:10.37,2013-03-09 16:31:00,
2013-03-09 11:36:00,49.1,30.2,30.31,NNE,18,7.7,11.5,48,0.00,CLR,SCT,0.00,756.0,WeatherDisplay:10.37,2013-03-09 16:36:00,
2013-03-09 11:41:00,49.3,29.9,30.31,NW,326,7.8,11.5,47,0.00,CLR,SCT,0.00,758.0,WeatherDisplay:10.37,2013-03-09 16:41:00,
2013-03-09 11:46:00,49.3,28.3,30.31,NNW,345,6.1,10.4,44,0.00,CLR,SCT,0.00,761.0,WeatherDisplay:10.37,2013-03-09 16:46:00,
2013-03-09 11:51:00,49.6,29.6,30.31,North,3,8.4,11.5,46,0.00,CLR,SCT,0.00,765.0,WeatherDisplay:10.37,2013-03-09 16:51:00,
2013-03-09 11:56:00,49.4,28.4,30.31,NNW,342,7.6,11.5,44,0.00,CLR,SCT,0.00,765.0,WeatherDisplay:10.37,2013-03-09 16:56:00,
2013-03-09 12:01:00,49.9,29.4,30.30,NNW,329,5.3,9.2,45,0.00,CLR,SCT,0.00,768.0,WeatherDisplay:10.37,2013-03-09 17:01:00,
2013-03-09 12:06:00,49.5,29.0,30.30,NW,324,5.2,10.4,45,0.00,CLR,SCT,0.00,766.0,WeatherDisplay:10.37,2013-03-09 17:06:00,
2013-03-09 12:11:00,49.7,30.3,30.30,North,353,5.0,6.9,47,0.00,CLR,SCT,0.00,768.0,WeatherDisplay:10.37,2013-03-09 17:11:00,
2013-03-09 12:16:00,51.5,31.9,30.30,NE,42,7.5,12.7,47,0.00,CLR,SCT,0.00,772.0,WeatherDisplay:10.37,2013-03-09 17:16:00,
2013-03-09 12:21:00,50.9,29.2,30.29,ENE,57,7.7,10.4,43,0.00,CLR,SCT,0.00,770.0,WeatherDisplay:10.37,2013-03-09 17:21:00,
2013-03-09 12:26:00,50.6,30.0,30.29,NE,45,5.0,5.8,45,0.00,CLR,SCT,0.00,772.0,WeatherDisplay:10.37,2013-03-09 17:26:00,
2013-03-09 12:31:00,50.8,30.7,30.29,NNE,24,5.2,10.4,46,0.00,CLR,SCT,0.00,772.0,WeatherDisplay:10.37,2013-03-09 17:31:00,
2013-03-09 12:36:00,51.0,30.9,30.28,NE,35,5.3,10.4,46,0.00,CLR,SCT,0.00,770.0,WeatherDisplay:10.37,2013-03-09 17:36:00,
2013-03-09 12:41:00,51.1,31.0,30.28,NNE,29,4.2,9.2,46,0.00,CLR,SCT,0.00,766.0,WeatherDisplay:10.37,2013-03-09 17:41:00,
2013-03-09 12:46:00,51.3,30.7,30.28,North,353,4.8,5.8,45,0.00,CLR,SCT,0.00,766.0,WeatherDisplay:10.37,2013-03-09 17:46:00,
2013-03-09 12:51:00,51.5,30.8,30.28,NNW,329,7.0,8.1,45,0.00,CLR,SCT,0.00,761.0,WeatherDisplay:10.37,2013-03-09 17:51:00,
2013-03-09 12:56:00,51.3,29.5,30.27,NW,310,4.8,5.8,43,0.00,CLR,SCT,0.00,761.0,WeatherDisplay:10.37,2013-03-09 17:56:00,
2013-03-09 13:01:00,51.0,29.8,30.27,NNE,22,4.6,9.2,44,0.00,CLR,SCT,0.00,758.0,WeatherDisplay:10.37,2013-03-09 18:01:00,
2013-03-09 13:06:00,51.6,29.2,30.27,North,351,5.2,9.2,42,0.00,CLR,SCT,0.00,752.0,WeatherDisplay:10.37,2013-03-09 18:06:00,
2013-03-09 13:11:00,52.1,30.8,30.27,NW,314,5.7,6.9,44,0.00,CLR,SCT,0.00,747.0,WeatherDisplay:10.37,2013-03-09 18:11:00,
2013-03-09 13:16:00,52.3,28.7,30.26,NNW,340,2.7,5.8,40,0.00,CLR,SCT,0.00,742.0,WeatherDisplay:10.37,2013-03-09 18:16:00,
2013-03-09 13:21:00,52.7,30.8,30.26,North,3,3.3,5.0,43,0.00,CLR,SCT,0.00,738.0,WeatherDisplay:10.37,2013-03-09 18:21:00,
2013-03-09 13:26:00,52.6,30.1,30.26,WNW,302,2.6,5.8,42,0.00,CLR,SCT,0.00,735.0,WeatherDisplay:10.37,2013-03-09 18:26:00,
2013-03-09 13:31:00,52.5,28.8,30.26,West,274,5.8,6.0,40,0.00,CLR,SCT,0.00,689.0,WeatherDisplay:10.37,2013-03-09 18:31:00,
2013-03-09 13:36:00,52.1,29.7,30.26,West,265,3.5,6.9,42,0.00,CLR,SCT,0.00,722.0,WeatherDisplay:10.37,2013-03-09 18:36:00,
2013-03-09 13:41:00,53.2,30.7,30.26,NNE,14,6.2,9.2,42,0.00,CLR,SCT,0.00,605.0,WeatherDisplay:10.37,2013-03-09 18:41:00,
2013-03-09 13:46:00,53.4,30.9,30.26,North,8,2.9,3.5,42,0.00,CLR,SCT,0.00,677.0,WeatherDisplay:10.37,2013-03-09 18:46:00,
2013-03-09 13:51:00,52.7,28.4,30.26,NNE,20,4.2,8.1,39,0.00,FEW,SCT,0.00,541.0,WeatherDisplay:10.37,2013-03-09 18:51:00,
2013-03-09 13:56:00,52.8,29.1,30.26,WNW,302,4.1,5.8,40,0.00,FEW,SCT,0.00,592.0,WeatherDisplay:10.37,2013-03-09 18:56:00,
2013-03-09 14:01:00,53.9,28.8,30.26,NNW,331,5.5,10.4,38,0.00,FEW,SCT,0.00,728.0,WeatherDisplay:10.37,2013-03-09 19:01:00,
2013-03-09 14:07:00,53.7,28.0,30.26,NNW,328,6.0,9.2,37,0.00,CLR,SCT,0.00,729.0,WeatherDisplay:10.37,2013-03-09 19:07:00,
2013-03-09 14:12:00,54.1,28.4,30.25,NNW,339,8.4,12.7,37,0.00,CLR,SCT,0.00,708.0,WeatherDisplay:10.37,2013-03-09 19:12:00,
2013-03-09 14:17:00,54.7,28.9,30.25,NNW,341,3.7,6.9,37,0.00,CLR,SCT,0.00,686.0,WeatherDisplay:10.37,2013-03-09 19:17:00,
2013-03-09 14:22:00,54.4,25.1,30.25,NNW,340,6.0,11.5,32,0.00,CLR,SCT,0.00,659.0,WeatherDisplay:10.37,2013-03-09 19:22:00,
2013-03-09 14:27:00,54.7,26.1,30.25,North,358,5.4,10.4,33,0.00,CLR,SCT,0.00,642.0,WeatherDisplay:10.37,2013-03-09 19:27:00,
2013-03-09 14:32:00,55.1,27.2,30.25,NNW,348,3.5,4.6,34,0.00,CLR,SCT,0.00,628.0,WeatherDisplay:10.37,2013-03-09 19:32:00,
2013-03-09 14:37:00,55.1,28.6,30.25,NW,322,5.8,6.9,36,0.00,CLR,SCT,0.00,615.0,WeatherDisplay:10.37,2013-03-09 19:37:00,
2013-03-09 14:42:00,55.2,25.1,30.25,North,358,4.1,5.8,31,0.00,CLR,SCT,0.00,603.0,WeatherDisplay:10.37,2013-03-09 19:42:00,
2013-03-09 14:47:00,55.7,25.5,30.25,NW,318,4.9,6.9,31,0.00,CLR,SCT,0.00,591.0,WeatherDisplay:10.37,2013-03-09 19:47:00,
2013-03-09 14:52:00,55.9,27.2,30.25,NNW,342,5.0,7.0,33,0.00,CLR,SCT,0.00,584.0,WeatherDisplay:10.37,2013-03-09 19:52:00,
2013-03-09 14:57:00,55.8,27.8,30.25,North,349,6.2,11.5,34,0.00,FEW,SCT,0.00,554.0,WeatherDisplay:10.37,2013-03-09 19:57:00,
2013-03-09 15:02:00,55.5,26.8,30.25,NW,322,3.4,4.6,33,0.00,FEW,SCT,0.00,536.0,WeatherDisplay:10.37,2013-03-09 20:02:00,
2013-03-09 15:07:00,55.8,27.8,30.25,North,358,4.9,9.2,34,0.00,FEW,SCT,0.00,492.0,WeatherDisplay:10.37,2013-03-09 20:07:00,
2013-03-09 15:12:00,55.5,26.1,30.25,NW,311,4.7,6.9,32,0.00,SCT,,0.00,570.0,WeatherDisplay:10.37,2013-03-09 20:12:00,
2013-03-09 15:17:00,55.8,25.6,30.25,NNE,20,5.4,10.4,31,0.00,FEW,SCT,0.00,533.0,WeatherDisplay:10.37,2013-03-09 20:17:00,
2013-03-09 15:22:00,56.1,24.2,30.25,West,263,4.1,5.8,29,0.00,FEW,SCT,0.00,506.0,WeatherDisplay:10.37,2013-03-09 20:22:00,
2013-03-09 15:27:00,56.5,26.2,30.25,NNW,347,4.6,7.0,31,0.00,FEW,SCT,0.00,487.0,WeatherDisplay:10.37,2013-03-09 20:27:00,
2013-03-09 15:32:00,56.2,28.2,30.25,NNE,33,3.6,4.6,34,0.00,FEW,SCT,0.00,469.0,WeatherDisplay:10.37,2013-03-09 20:32:00,
2013-03-09 15:37:00,56.1,25.8,30.25,NNW,338,3.9,5.8,31,0.00,FEW,SCT,0.00,454.0,WeatherDisplay:10.37,2013-03-09 20:37:00,
2013-03-09 15:42:00,55.9,26.4,30.25,NW,324,2.0,2.3,32,0.00,FEW,SCT,0.00,438.0,WeatherDisplay:10.37,2013-03-09 20:42:00,
2013-03-09 15:47:00,56.0,28.0,30.25,North,3,3.9,5.0,34,0.00,FEW,SCT,0.00,422.0,WeatherDisplay:10.37,2013-03-09 20:47:00,
2013-03-09 15:52:00,56.0,25.8,30.25,North,3,2.2,3.5,31,0.00,FEW,SCT,0.00,406.0,WeatherDisplay:10.37,2013-03-09 20:52:00,
2013-03-09 15:57:00,55.4,25.2,30.25,NW,318,3.1,5.8,31,0.00,FEW,SCT,0.00,392.0,WeatherDisplay:10.37,2013-03-09 20:57:00,
2013-03-09 16:02:00,55.2,24.3,30.25,NE,50,3.9,7.0,30,0.00,SCT,,0.00,374.0,WeatherDisplay:10.37,2013-03-09 21:02:00,
2013-03-09 16:07:00,55.1,25.0,30.25,NE,34,3.4,6.0,31,0.00,SCT,,0.00,51.0,WeatherDisplay:10.37,2013-03-09 21:07:00,
2013-03-09 16:12:00,54.6,25.3,30.25,ENE,73,3.3,5.0,32,0.00,BKN,SCT,0.00,39.0,WeatherDisplay:10.37,2013-03-09 21:12:00,
2013-03-09 16:17:00,53.9,26.1,30.25,NE,39,3.6,5.8,34,0.00,BKN,SCT,0.00,37.0,WeatherDisplay:10.37,2013-03-09 21:17:00,
2013-03-09 16:22:00,53.9,23.9,30.25,NE,55,3.5,4.6,31,0.00,BKN,SCT,0.00,40.0,WeatherDisplay:10.37,2013-03-09 21:22:00,
2013-03-09 16:27:00,54.1,24.1,30.25,ENE,60,1.5,2.3,31,0.00,BKN,SCT,0.00,35.0,WeatherDisplay:10.37,2013-03-09 21:27:00,
2013-03-09 16:32:00,54.1,25.6,30.25,NE,54,2.3,3.5,33,0.00,BKN,SCT,0.00,39.0,WeatherDisplay:10.37,2013-03-09 21:32:00,
2013-03-09 16:37:00,54.1,24.9,30.25,NE,47,1.7,3.5,32,0.00,BKN,SCT,0.00,33.0,WeatherDisplay:10.37,2013-03-09 21:37:00,
2013-03-09 16:42:00,54.0,25.5,30.25,NE,45,1.1,2.3,33,0.00,BKN,SCT,0.00,32.0,WeatherDisplay:10.37,2013-03-09 21:42:00,
2013-03-09 16:47:00,53.9,25.4,30.25,NNE,25,1.9,3.5,33,0.00,BKN,SCT,0.00,32.0,WeatherDisplay:10.37,2013-03-09 21:47:00,
2013-03-09 16:52:00,53.9,23.9,30.25,NNE,25,0.4,1.1,31,0.00,BKN,SCT,0.00,30.0,WeatherDisplay:10.37,2013-03-09 21:52:00,
2013-03-09 16:57:00,54.0,26.2,30.25,NE,37,2.9,3.5,34,0.00,BKN,SCT,0.00,28.0,WeatherDisplay:10.37,2013-03-09 21:57:00,
2013-03-09 17:02:00,53.8,24.6,30.25,NE,54,2.6,3.5,32,0.00,BKN,SCT,0.00,28.0,WeatherDisplay:10.37,2013-03-09 22:02:00,
2013-03-09 17:07:00,53.1,30.0,30.25,ENE,60,2.2,3.5,41,0.00,BKN,SCT,0.00,26.0,WeatherDisplay:10.37,2013-03-09 22:07:00,
2013-03-09 17:12:00,52.5,28.2,30.25,ENE,61,2.1,3.5,39,0.00,BKN,SCT,0.00,26.0,WeatherDisplay:10.37,2013-03-09 22:12:00,
2013-03-09 17:17:00,52.2,29.2,30.25,East,79,1.5,3.5,41,0.00,BKN,SCT,0.00,25.0,WeatherDisplay:10.37,2013-03-09 22:17:00,
2013-03-09 17:22:00,52.8,25.9,30.25,East,79,0.0,0.0,35,0.00,BKN,SCT,0.00,23.0,WeatherDisplay:10.37,2013-03-09 22:22:00,
2013-03-09 17:27:00,51.7,27.5,30.25,East,79,0.0,0.0,39,0.00,BKN,SCT,0.00,23.0,WeatherDisplay:10.37,2013-03-09 22:27:00,
2013-03-09 17:32:00,50.9,26.8,30.25,East,79,0.0,0.0,39,0.00,BKN,SCT,0.00,19.0,WeatherDisplay:10.37,2013-03-09 22:32:00,
2013-03-09 17:37:00,50.9,27.4,30.25,East,79,0.0,0.0,40,0.00,BKN,SCT,0.00,18.0,WeatherDisplay:10.37,2013-03-09 22:37:00,
2013-03-09 17:42:00,50.3,28.1,30.25,East,79,0.0,0.0,42,0.00,BKN,SCT,0.00,16.0,WeatherDisplay:10.37,2013-03-09 22:42:00,
2013-03-09 17:47:00,50.2,27.4,30.25,East,79,0.0,0.0,41,0.00,BKN,SCT,0.00,14.0,WeatherDisplay:10.37,2013-03-09 22:47:00,
2013-03-09 17:52:00,49.4,29.5,30.25,South,182,1.5,2.3,46,0.00,BKN,SCT,0.00,11.0,WeatherDisplay:10.37,2013-03-09 22:52:00,
2013-03-09 17:57:00,48.6,29.8,30.25,South,182,0.4,2.3,48,0.00,,SCT,0.00,9.0,WeatherDisplay:10.37,2013-03-09 22:57:00,
2013-03-09 18:02:00,47.8,31.0,30.25,South,181,0.8,2.3,52,0.00,,SCT,0.00,5.0,WeatherDisplay:10.37,2013-03-09 23:02:00,
2013-03-09 18:07:00,46.7,31.4,30.26,South,181,0.2,1.1,55,0.00,,SCT,0.00,0.0,WeatherDisplay:10.37,2013-03-09 23:07:00,
2013-03-09 18:12:00,46.3,31.0,30.25,South,181,0.0,0.0,55,0.00,,SCT,0.00,0.0,WeatherDisplay:10.37,2013-03-09 23:12:00,
2013-03-09 18:17:00,45.7,31.8,30.26,South,181,0.0,0.0,58,0.00,,SCT,0.00,0.0,WeatherDisplay:10.37,2013-03-09 23:17:00,
2013-03-09 18:22:00,45.2,30.4,30.25,South,181,0.0,0.0,56,0.00,,SCT,0.00,0.0,WeatherDisplay:10.37,2013-03-09 23:22:00,
2013-03-09 18:27:00,44.7,30.4,30.25,South,181,0.0,0.0,57,0.00,,SCT,0.00,0.0,WeatherDisplay:10.37,2013-03-09 23:27:00,
2013-03-09 18:32:00,44.3,30.0,30.25,South,181,0.0,0.0,57,0.00,,SCT,0.00,0.0,WeatherDisplay:10.37,2013-03-09 23:32:00,
2013-03-09 18:37:00,43.8,31.2,30.25,South,181,0.0,0.0,61,0.00,,SCT,0.00,0.0,WeatherDisplay:10.37,2013-03-09 23:37:00,
2013-03-09 18:42:00,43.5,32.9,30.25,South,181,0.0,0.0,66,0.00,,SCT,0.00,0.0,WeatherDisplay:10.37,2013-03-09 23:42:00,
2013-03-09 18:47:00,42.8,32.2,30.25,South,181,0.0,0.0,66,0.00,,SCT,0.00,0.0,WeatherDisplay:10.37,2013-03-09 23:47:00,
2013-03-09 18:52:00,42.5,31.2,30.25,South,181,0.0,0.0,64,0.00,,SCT,0.00,0.0,WeatherDisplay:10.37,2013-03-09 23:52:00,
2013-03-09 18:57:00,42.4,31.5,30.25,South,181,0.0,0.0,65,0.00,,SCT,0.00,0.0,WeatherDisplay:10.37,2013-03-09 23:57:00,
2013-03-09 19:02:00,41.8,31.6,30.25,South,181,0.0,0.0,67,0.00,,SCT,0.00,0.0,WeatherDisplay:10.37,2013-03-10 00:02:00,
2013-03-09 19:07:00,41.5,31.7,30.26,South,181,0.0,0.0,68,0.00,,SCT,0.00,0.0,WeatherDisplay:10.37,2013-03-10 00:07:00,
2013-03-09 19:12:00,41.4,31.3,30.26,South,181,0.0,0.0,67,0.00,,SCT,0.00,0.0,WeatherDisplay:10.37,2013-03-10 00:12:00,
2013-03-09 19:17:00,41.2,31.4,30.26,South,181,0.0,0.0,68,0.00,,SCT,0.00,0.0,WeatherDisplay:10.37,2013-03-10 00:17:00,
2013-03-09 19:22:00,40.9,30.8,30.26,South,181,0.0,0.0,67,0.00,,SCT,0.00,0.0,WeatherDisplay:10.37,2013-03-10 00:22:00,
2013-03-09 19:27:00,41.1,34.1,30.26,South,181,0.0,0.0,76,0.00,,SCT,0.00,0.0,WeatherDisplay:10.37,2013-03-10 00:27:00,
2013-03-09 19:32:00,41.0,35.0,30.27,South,181,0.0,0.0,79,0.00,,SCT,0.00,0.0,WeatherDisplay:10.37,2013-03-10 00:32:00,
2013-03-09 19:37:00,40.5,32.9,30.27,South,181,0.0,0.0,74,0.00,,SCT,0.00,0.0,WeatherDisplay:10.37,2013-03-10 00:37:00,
2013-03-09 19:42:00,40.2,32.9,30.26,South,181,0.0,0.0,75,0.00,,SCT,0.00,0.0,WeatherDisplay:10.37,2013-03-10 00:42:00,
2013-03-09 19:47:00,40.0,32.0,30.26,South,181,0.0,0.0,73,0.00,,SCT,0.00,0.0,WeatherDisplay:10.37,2013-03-10 00:47:00,
2013-03-09 19:52:00,39.7,31.4,30.27,South,181,0.0,0.0,72,0.00,,SCT,0.00,0.0,WeatherDisplay:10.37,2013-03-10 00:52:00,
2013-03-09 19:57:00,39.6,31.7,30.27,South,181,0.0,0.0,73,0.00,,SCT,0.00,0.0,WeatherDisplay:10.37,2013-03-10 00:57:00,
2013-03-09 20:02:00,39.3,30.7,30.27,South,181,0.0,0.0,71,0.00,,SCT,0.00,0.0,WeatherDisplay:10.37,2013-03-10 01:02:00,
2013-03-09 20:07:00,39.2,30.6,30.27,South,181,0.0,0.0,71,0.00,,SCT,0.00,0.0,WeatherDisplay:10.37,2013-03-10 01:07:00,
2013-03-09 20:12:00,39.0,30.7,30.27,South,181,0.8,1.1,72,0.00,,SCT,0.00,0.0,WeatherDisplay:10.37,2013-03-10 01:12:00,
2013-03-09 20:17:00,38.8,31.2,30.27,South,181,0.0,0.0,74,0.00,,SCT,0.00,0.0,WeatherDisplay:10.37,2013-03-10 01:17:00,
2013-03-09 20:22:00,38.4,30.8,30.27,South,181,0.0,0.0,74,0.00,,SCT,0.00,0.0,WeatherDisplay:10.37,2013-03-10 01:22:00,
2013-03-09 20:27:00,38.3,31.1,30.27,South,181,0.0,0.0,75,0.00,,SCT,0.00,0.0,WeatherDisplay:10.37,2013-03-10 01:27:00,
2013-03-09 20:32:00,38.0,31.4,30.28,South,181,0.0,0.0,77,0.00,,SCT,0.00,0.0,WeatherDisplay:10.37,2013-03-10 01:32:00,
2013-03-09 20:37:00,38.0,31.1,30.27,South,181,0.0,0.0,76,0.00,,SCT,0.00,0.0,WeatherDisplay:10.37,2013-03-10 01:37:00,
2013-03-09 20:42:00,37.9,31.3,30.28,South,181,0.0,0.0,77,0.00,,SCT,0.00,0.0,WeatherDisplay:10.37,2013-03-10 01:42:00,
2013-03-09 20:47:00,37.8,30.9,30.27,South,181,0.0,0.0,76,0.00,,SCT,0.00,0.0,WeatherDisplay:10.37,2013-03-10 01:47:00,
2013-03-09 20:52:00,37.6,31.0,30.28,South,181,0.0,0.0,77,0.00,,SCT,0.00,0.0,WeatherDisplay:10.37,2013-03-10 01:52:00,
2013-03-09 20:57:00,37.6,31.0,30.28,South,181,0.0,0.0,77,0.00,,SCT,0.00,0.0,WeatherDisplay:10.37,2013-03-10 01:57:00,
2013-03-09 21:02:00,37.5,30.9,30.28,South,181,0.0,0.0,77,0.00,,SCT,0.00,0.0,WeatherDisplay:10.37,2013-03-10 02:02:00,
2013-03-09 21:07:00,37.4,30.5,30.28,South,181,0.0,0.0,76,0.00,,SCT,0.00,0.0,WeatherDisplay:10.37,2013-03-10 02:07:00,
2013-03-09 21:12:00,37.5,31.3,30.28,South,181,0.0,0.0,78,0.00,,SCT,0.00,0.0,WeatherDisplay:10.37,2013-03-10 02:12:00,
2013-03-09 21:17:00,37.5,31.6,30.28,South,181,0.0,0.0,79,0.00,,SCT,0.00,0.0,WeatherDisplay:10.37,2013-03-10 02:17:00,
2013-03-09 21:22:00,37.7,32.1,30.28,South,181,0.0,0.0,80,0.00,,SCT,0.00,0.0,WeatherDisplay:10.37,2013-03-10 02:22:00,
2013-03-09 21:27:00,37.3,31.4,30.28,South,181,0.0,0.0,79,0.00,,SCT,0.00,0.0,WeatherDisplay:10.37,2013-03-10 02:27:00,
2013-03-09 21:32:00,36.6,31.0,30.28,South,181,0.0,0.0,80,0.00,,SCT,0.00,0.0,WeatherDisplay:10.37,2013-03-10 02:32:00,
2013-03-09 21:38:00,36.5,31.2,30.28,South,181,0.0,0.0,81,0.00,,SCT,0.00,0.0,WeatherDisplay:10.37,2013-03-10 02:38:00,
2013-03-09 21:43:00,36.4,31.4,30.28,South,181,0.0,0.0,82,0.00,,SCT,0.00,0.0,WeatherDisplay:10.37,2013-03-10 02:43:00,
2013-03-09 21:48:00,36.2,31.2,30.28,South,181,0.0,0.0,82,0.00,,SCT,0.00,0.0,WeatherDisplay:10.37,2013-03-10 02:48:00,
2013-03-09 21:53:00,36.2,31.5,30.29,South,181,0.0,0.0,83,0.00,,SCT,0.00,0.0,WeatherDisplay:10.37,2013-03-10 02:53:00,
2013-03-09 21:58:00,36.1,31.4,30.29,South,181,0.0,0.0,83,0.00,,SCT,0.00,0.0,WeatherDisplay:10.37,2013-03-10 02:58:00,
2013-03-09 22:03:00,36.1,31.4,30.29,South,181,0.0,0.0,83,0.00,,SCT,0.00,0.0,WeatherDisplay:10.37,2013-03-10 03:03:00,
2013-03-09 22:08:00,36.0,31.6,30.29,South,181,0.0,0.0,84,0.00,,SCT,0.00,0.0,WeatherDisplay:10.37,2013-03-10 03:08:00,
2013-03-09 22:13:00,35.8,31.1,30.29,South,181,0.0,0.0,83,0.00,,SCT,0.00,0.0,WeatherDisplay:10.37,2013-03-10 03:13:00,
2013-03-09 22:18:00,35.7,31.0,30.30,South,181,0.0,0.0,83,0.00,,SCT,0.00,0.0,WeatherDisplay:10.37,2013-03-10 03:18:00,
2013-03-09 22:23:00,35.5,30.8,30.30,South,181,0.0,0.0,83,0.00,,SCT,0.00,0.0,WeatherDisplay:10.37,2013-03-10 03:23:00,
2013-03-09 22:28:00,35.5,31.1,30.29,South,181,0.0,0.0,84,0.00,,SCT,0.00,0.0,WeatherDisplay:10.37,2013-03-10 03:28:00,
2013-03-09 22:33:00,36.2,32.4,30.29,South,181,0.0,0.0,86,0.00,,SCT,0.00,0.0,WeatherDisplay:10.37,2013-03-10 03:33:00,
2013-03-09 22:38:00,36.1,32.3,30.30,South,181,0.0,0.0,86,0.00,,SCT,0.00,0.0,WeatherDisplay:10.37,2013-03-10 03:38:00,
2013-03-09 22:43:00,35.7,31.6,30.30,South,181,0.0,0.0,85,0.00,,SCT,0.00,0.0,WeatherDisplay:10.37,2013-03-10 03:43:00,
2013-03-09 22:48:00,35.5,31.7,30.30,South,181,0.0,0.0,86,0.00,,SCT,0.00,0.0,WeatherDisplay:10.37,2013-03-10 03:48:00,
2013-03-09 22:53:00,35.2,31.4,30.30,South,181,0.0,0.0,86,0.00,,SCT,0.00,0.0,WeatherDisplay:10.37,2013-03-10 03:53:00,
2013-03-09 22:58:00,35.1,31.6,30.30,South,181,0.0,0.0,87,0.00,,SCT,0.00,0.0,WeatherDisplay:10.37,2013-03-10 03:58:00,
2013-03-09 23:03:00,35.0,31.5,30.30,South,181,0.0,0.0,87,0.00,,SCT,0.00,0.0,WeatherDisplay:10.37,2013-03-10 04:03:00,
2013-03-09 23:08:00,35.0,31.8,30.30,South,181,0.0,0.0,88,0.00,,SCT,0.00,0.0,WeatherDisplay:10.37,2013-03-10 04:08:00,
2013-03-09 23:13:00,34.9,31.7,30.29,South,181,0.0,0.0,88,0.00,,SCT,0.00,0.0,WeatherDisplay:10.37,2013-03-10 04:13:00,
2013-03-09 23:18:00,34.8,31.6,30.29,South,181,0.0,0.0,88,0.00,,SCT,0.00,0.0,WeatherDisplay:10.37,2013-03-10 04:18:00,
2013-03-09 23:23:00,34.7,31.2,30.30,South,181,0.0,0.0,87,0.00,,SCT,0.00,0.0,WeatherDisplay:10.37,2013-03-10 04:23:00,
2013-03-09 23:28:00,34.8,31.3,30.29,South,181,0.0,0.0,87,0.00,,SCT,0.00,0.0,WeatherDisplay:10.37,2013-03-10 04:28:00,
2013-03-09 23:33:00,34.7,31.5,30.29,South,181,0.0,0.0,88,0.00,,SCT,0.00,0.0,WeatherDisplay:10.37,2013-03-10 04:33:00,
2013-03-09 23:38:00,35.1,32.2,30.29,South,181,0.0,0.0,89,0.00,,SCT,0.00,0.0,WeatherDisplay:10.37,2013-03-10 04:38:00,
2013-03-09 23:43:00,35.2,32.3,30.29,South,181,0.0,0.0,89,0.00,,SCT,0.00,0.0,WeatherDisplay:10.37,2013-03-10 04:43:00,
2013-03-09 23:48:00,34.8,31.6,30.29,South,181,0.0,0.0,88,0.00,,SCT,0.00,0.0,WeatherDisplay:10.37,2013-03-10 04:48:00,
2013-03-09 23:53:00,34.4,31.2,30.29,South,181,0.0,0.0,88,0.00,,SCT,0.00,0.0,WeatherDisplay:10.37,2013-03-10 04:53:00,
2013-03-09 23:58:00,34.1,30.6,30.29,South,181,0.0,0.0,87,0.00,,SCT,0.00,0.0,WeatherDisplay:10.37,2013-03-10 04:58:00,